Simultaneous Nadir Overpasses (SNOs) Predictions

Prediction of SNOs between FY3D and AQUA Satellite Orbit:

Table of predicted SNOs for the next 14.0 days since TLE Epoch: 11/2/2019
Index Date (FY3D) Time (FY3D) Lat,Lon (FY3D) SZA (FY3D ) Date (AQUA) Time (AQUA) Lat,Lon (AQUA) SZA (AQUA ) Distance(km) Time Diff (sec)
1 11/03/2019 15:14:42 -68.19, -4.01 61.37 11/03/2019 15:15:28 -68.19, -4.02 61.42 0.36 46
2 11/03/2019 16:04:30 71.08, 167.56 115.90 11/03/2019 16:04:00 71.08, 167.59 115.92 1.19 30
3 11/06/2019 07:31:08 -68.19, 111.88 60.58 11/06/2019 07:31:56 -68.18, 111.86 60.64 0.66 48
4 11/06/2019 08:20:57 71.02, -76.65 116.74 11/06/2019 08:20:29 71.03, -76.62 116.77 1.12 28
5 11/08/2019 23:47:32 -68.29,-132.10 59.92 11/08/2019 23:48:22 -68.28,-132.14 59.97 1.66 50
6 11/09/2019 00:37:21 71.12, 39.41 117.41 11/09/2019 00:36:55 71.12, 39.42 117.44 0.32 26
7 11/11/2019 16:04:12 -67.53, -17.15 58.48 11/11/2019 16:05:03 -67.53, -17.12 58.56 1.50 51
8 11/11/2019 16:53:44 71.27, 155.56 118.00 11/11/2019 16:53:20 71.27, 155.53 118.04 1.23 24
9 11/14/2019 08:20:29 -67.95, 99.26 58.17 11/14/2019 08:21:22 -67.95, 99.24 58.23 0.83 53




NCC Satellite Simultaneous Nadir Overpasses (SNOs) Prediction Service
